Preview of NWS' New Version of Forecast
This preview is not operational and should not be used for support decisions.

Regional Weather Roundup (RWR)

Issued by National Weather Service (NWS)

                            
000
ASUS45 KABQ 182201
RWRNM 
NEW MEXICO REGIONAL WEATHER ROUNDUP
NATIONAL WEATHER SERVICE ALBUQUERQUE NM
300 PM MST MON FEB 18 2019

NOTE: "FAIR" MEANS FEW OR NO CLOUDS BELOW 12,000 FEET AGL WITH NO
       SIGNIFICANT WEATHER OR OBSTRUCTIONS TO VISION.

      THIS PRODUCT IS RELEASED AS TWO VERSIONS.  ONE VERSION NEAR
      THE TOP OF THE HOUR CONTAINING PRELIMINARY DATA FROM ALBUQUERQUE
      AND OTHER STATIONS.  A FINAL VERSION WITH ADDITIONAL DATA IS 
      ISSUED ABOUT 10 MINUTES AFTER THE HOUR.
 
NMZ501-503-504-510>518-182300-
NORTHWEST PLATEAU/NORTHCENTRAL MOUNTAINS
  
CITY           SKY/WX    TMP DP  RH WIND       PRES   REMARKS
FARMINGTON     LGT SNOW  31  27  85 W5        29.83S FOG     WCI  26  
LOS ALAMOS     LGT SNOW  26  18  73 S12G18    29.90F WCI  15          
SANTA FE       CLOUDY    29  16  58 SE22G35   29.91F WCI  15          
TAOS           CLOUDY    26  19  74 E15       29.89F WCI  14          
ANGEL FIRE     LGT SNOW  19  12  73 S15       29.88S WCI   5          

$$
NMZ402-403-502-505>509-182300-
WESTCENTRAL MOUNTAINS/SOUTHWEST MOUNTAINS
  
CITY           SKY/WX    TMP DP  RH WIND       PRES   REMARKS
GALLUP         FLURRIES  30  22  72 SW16      29.83S WCI  19          
GRANTS         CLOUDY    36  19  49 SW21G29   29.83S WCI  25          
SILVER CITY    FAIR      51   8  17 S20G29    29.85F                  

$$
NMZ407-409-411-412-182300-
SOUTHERN DESERTS
  
CITY           SKY/WX    TMP DP  RH WIND       PRES   REMARKS
DEMING         FAIR      58   5  12 SW17G28   29.84F                  
LAS CRUCES     FAIR      61  11  14 S9G16     29.87F                  
HOLLOMAN AFB   FAIR      60   7  12 S15G24    29.86F                  
ALAMOGORDO     FAIR      57   9  14 S22G32    29.85F                  
T OR C         FAIR      53   7  15 S25G33    29.82F                  

$$
NMZ519>523-182300-
CENTRAL VALLEYS/CENTRAL HIGHLANDS
  
CITY           SKY/WX    TMP DP  RH WIND       PRES   REMARKS
ALBUQUERQUE    PTSUNNY   37  17  44 E30G39    29.85F WCI  24          
DOUBLE EAGLE   PTSUNNY   36  16  44 E25       29.86F WCI  23          
CLINES CORNERS LGT SNOW  15  12  88 E18       29.94F VSB 1   WCI  -2  
BELEN          FAIR      48   9  20 SE20      29.83F                  
SOCORRO        NOT AVBL                                               

$$
NMZ524>526-539-540-182300-
SOUTHCENTRAL MOUNTAINS
  
CITY           SKY/WX    TMP DP  RH WIND       PRES   REMARKS
RUIDOSO        NOT AVBL                                               

$$
NMZ527>531-182300-
NORTHEAST HIGHLANDS/NORTHEAST PLAINS
  
CITY           SKY/WX    TMP DP  RH WIND       PRES   REMARKS
LAS VEGAS      LGT SNOW  17  14  88 S9        29.98F FOG     WCI   6  
RATON          LGT SNOW  17  11  77 SW6       29.99S WCI   9          
CLAYTON        LGT SNOW  13   9  84 SE8       30.13S FOG     WCI   2  

$$
NMZ532>537-182300-
EASTCENTRAL PLAINS
  
CITY           SKY/WX    TMP DP  RH WIND       PRES   REMARKS
SANTA ROSA     CLOUDY    19  17  89 NE14      30.10S WCI   6          
TUCUMCARI      CLOUDY    25  14  63 E8        30.14F WCI  16          
CANNON AFB     FAIR      35  13  40 E14G23    30.09F WCI  26          
CLOVIS AIRPORT FAIR      34  14  43 E14       30.10F WCI  25          

$$
NMZ028-029-538-182300-
SOUTHEAST PLAINS
  
CITY           SKY/WX    TMP DP  RH WIND       PRES   REMARKS
ROSWELL        FAIR      48  23  37 SE18G26   30.00F                  
ARTESIA        FAIR      48  23  37 SE17G25   30.01F                  
CARLSBAD       FAIR      49  24  37 SE17G25   30.00F                  
HOBBS          SUNNY     39  21  48 E20G26    30.07F WCI  30          


$$